Regional Weather Roundup
Issued by NWS

Home | Current Version | Previous Version | Graphics & Text | Print | Product List | Glossary On
Versions: 1 2 3 4 5 6 7 8 9 10 11 12 13 14 15 16 17 18 19 20 21 22 23 24 25 26 27 28 29 30 31 32 33 34 35 36 37 38 39 40 41 42 43 44 45 46 47 48 49 50
000
ASUS45 KABQ 031801
RWRNM
NEW MEXICO REGIONAL WEATHER ROUNDUP
NATIONAL WEATHER SERVICE ALBUQUERQUE NM
1200 PM MDT FRI JUL 03 2015

NOTE: "FAIR" MEANS FEW OR NO CLOUDS BELOW 12,000 FEET AGL WITH NO
       SIGNIFICANT WEATHER OR OBSTRUCTIONS TO VISION.

      THIS PRODUCT IS RELEASED AS TWO VERSIONS.  ONE VERSION NEAR
      THE TOP OF THE HOUR CONTAINING PRELIMINARY DATA FROM ALBUQUERQUE
      AND OTHER STATIONS.  A FINAL VERSION WITH ADDITIONAL DATA IS
      ISSUED ABOUT 10 MINUTES AFTER THE HOUR.

NMZ501-503-504-510>518-031900-
NORTHWEST PLATEAU/NORTHCENTRAL MOUNTAINS

CITY           SKY/WX    TMP DP  RH WIND       PRES   REMARKS
FARMINGTON     SUNNY     82  55  39 E9        30.17F
6HR MIN TEMP:  62; 6HR MAX TEMP:  82;

SANTA FE       PTSUNNY   77  52  41 VRB5      30.25F
6HR MIN TEMP:  58; 6HR MAX TEMP:  78;

TAOS           MOSUNNY   73  46  38 CALM      30.32S
ANGEL FIRE     FAIR      68  55  64 CALM      30.40F

$$
NMZ402-403-502-505>509-031900-
WESTCENTRAL MOUNTAINS/SOUTHWEST MOUNTAINS

CITY           SKY/WX    TMP DP  RH WIND       PRES   REMARKS
GALLUP         MOSUNNY   80  53  39 SW13      30.24F
6HR MIN TEMP:  58; 6HR MAX TEMP:  80;

GRANTS         SUNNY     77  57  50 SE8       30.28S
SILVER CITY      N/A     79  55  44 W5        30.19F

$$
NMZ407-409-411-412-031900-
SOUTHERN DESERTS

CITY           SKY/WX    TMP DP  RH WIND       PRES   REMARKS
LORDSBURG      FAIR      81  59  47 NW8       30.10F
DEMING         SUNNY     86  56  35 CALM      30.10F
6HR MIN TEMP:  72; 6HR MAX TEMP:  86;

HOLLOMAN AFB   PTSUNNY   83  58  42 N6        30.08F
ALAMOGORDO     PTSUNNY   86  55  35 NE5       30.11F
T OR C         SUNNY     84  57  39 SE8G17    30.13F
6HR MIN TEMP:  68; 6HR MAX TEMP:  84;


$$
NMZ519>523-031900-
CENTRAL VALLEYS/CENTRAL HIGHLANDS

CITY           SKY/WX    TMP DP  RH WIND       PRES   REMARKS
ALBUQUERQUE    PTSUNNY   81  57  43 CALM      30.20F
6HR MIN TEMP:  69; 6HR MAX TEMP:  81;

DOUBLE EAGLE   PTSUNNY   79  59  50 S6        30.24F
MORIARTY ARPT    N/A     76  54  45 SE6       30.27F
6HR MIN TEMP:  56; 6HR MAX TEMP:  76;

CLINES CORNERS MOSUNNY   73  52  47 VRB6      30.30F
6HR MIN TEMP:  57; 6HR MAX TEMP:  75;

BELEN          FAIR      83  55  39 S8        30.18F
6HR MIN TEMP:  66; 6HR MAX TEMP:  83;

SOCORRO        NOT AVBL

$$
NMZ524>526-539-540-031900-
SOUTHCENTRAL MOUNTAINS

CITY           SKY/WX    TMP DP  RH WIND       PRES   REMARKS
RUIDOSO        NOT AVBL

$$
NMZ527>531-031900-
NORTHEAST HIGHLANDS/NORTHEAST PLAINS

CITY           SKY/WX    TMP DP  RH WIND       PRES   REMARKS
LAS VEGAS      CLOUDY    69  57  65 CALM      30.31S
6HR MIN TEMP:  57; 6HR MAX TEMP:  70;

RATON          PTSUNNY   75  57  53 MISG      30.25F
6HR MIN TEMP:  61; 6HR MAX TEMP:  75;

CLAYTON        MOSUNNY   85  49  28 MISG      30.17S
6HR MIN TEMP:  65; 6HR MAX TEMP:  85;


$$
NMZ532>537-031900-
EASTCENTRAL PLAINS

CITY           SKY/WX    TMP DP  RH WIND       PRES   REMARKS
TUCUMCARI      PTSUNNY   82  60  47 N5        30.11F
6HR MIN TEMP:  66; 6HR MAX TEMP:  83; 6HR PCP:  0.01;

CANNON AFB     CLOUDY    81  59  45 VRB5      30.15R
6HR MIN TEMP:  65; 6HR MAX TEMP:  82; 6HR PCP:  0.02;

CLOVIS AIRPORT CLOUDY    81  61  50 SE9         N/A

$$
NMZ028-029-538-031900-
SOUTHEAST PLAINS

CITY           SKY/WX    TMP DP  RH WIND       PRES   REMARKS
ROSWELL        PTSUNNY   78  62  57 NW17      30.12R
6HR MIN TEMP:  71; 6HR MAX TEMP:  84;

ARTESIA        PTSUNNY   86  63  45 N13G20    30.09S
CARLSBAD       MOSUNNY   89  62  40 NE13      30.05F
6HR MIN TEMP:  73; 6HR MAX TEMP:  89;

HOBBS          MOSUNNY   84  63  48 NE7       30.10S


$$


USA.gov is the U.S. government's official web portal to all federal, state and local government web resources and services.